This is the latest recevied weather packets stored in our database for station/object AG1T-20. If no packets are shown the sender has not sent any weather packets the latest 10 day(s).
| Time | Temp. | Humidity | Pressure | Rain* | Wind** | Luminosity | Snow |
|---|---|---|---|---|---|---|---|
| 1778017205 | 15° C | 53% | 1013.1 hPa | 0 mm | - | 583 W/m² | - |
| 1778016605 | 15.56° C | 53% | 1013.1 hPa | 0 mm | - | 592 W/m² | - |
| 1778016005 | 14.44° C | 58% | 1013.1 hPa | 0 mm | - | 624 W/m² | - |
| 1778015405 | 13.33° C | 57% | 1013.1 hPa | 0 mm | - | 654 W/m² | - |
| 1778014805 | 13.89° C | 59% | 1013.1 hPa | 0 mm | - | 683 W/m² | - |
| 1778014205 | 13.33° C | 61% | 1013.7 hPa | 0 mm | - | 712 W/m² | - |
| 1778013604 | 12.22° C | 64% | 1013.7 hPa | 0 mm | - | 518 W/m² | - |
| 1778013004 | 12.22° C | 68% | 1013.7 hPa | 0 mm | - | 812 W/m² | - |
| 1778012405 | 12.22° C | 73% | 1013.7 hPa | 0.25 mm | - | 809 W/m² | - |
| 1778011805 | 11.67° C | 75% | 1013.7 hPa | 0.25 mm | - | 642 W/m² | - |
| 1778011205 | 11.67° C | - | - | 0.25 mm | - | 101 W/m² | - |
| 1778010605 | 10.56° C | 81% | 1014.2 hPa | 0.25 mm | - | 497 W/m² | - |
| 1778010005 | 10.56° C | 81% | 1014.2 hPa | 0.51 mm | - | 434 W/m² | - |
| 1778009404 | 10.56° C | 83% | 1014.2 hPa | 1.27 mm | - | 359 W/m² | - |
| 1778008804 | 10° C | 85% | 1014.2 hPa | 1.78 mm | - | 375 W/m² | - |
| 1778008205 | 10° C | 87% | 1014.2 hPa | 2.03 mm | - | 324 W/m² | - |
| 1778007605 | 9.44° C | 90% | 1014.2 hPa | 2.29 mm | - | 584 W/m² | - |
| 1778007004 | 9.44° C | 95% | 1014.5 hPa | 2.79 mm | - | 625 W/m² | - |
| 1778006404 | 8.33° C | 95% | 1014.5 hPa | 2.79 mm | - | 199 W/m² | - |
| 1778005804 | 8.33° C | 94% | 1014.5 hPa | 2.03 mm | - | 73 W/m² | - |
| 1778005205 | 7.78° C | 94% | 1014.5 hPa | 1.27 mm | - | 40 W/m² | - |
| 1778004605 | 8.89° C | 94% | 1014.5 hPa | 1.02 mm | - | 67 W/m² | - |
| 1778004005 | 8.89° C | 92% | 1014.5 hPa | 1.02 mm | - | 67 W/m² | - |
| 1778003405 | 8.89° C | 91% | 1013.8 hPa | 0.76 mm | - | 96 W/m² | - |
| 1778002805 | 9.44° C | 90% | 1013.8 hPa | 0.51 mm | - | 90 W/m² | - |
* Rain latest hour (hover to see other rain measurements)
** Current wind speed in m/s (hover to see current wind gust speed)